Theta_e
325 326 326 325 325 326 325 324 327 326 327 333 340 349 352 351 351 355 357 355 356 359 359 359 359 361 357 355 359 359 357 356 354 352 347 341 341 341 340 341 341 340 341 343 343 343 344 344 345 345 346 348 349 351 351 352 351 349 347 346 347 345 345 345 345 346 346 344 345 346 346 347 347 347 347 346 345 344 343 341 340 341 344 344 344 344
325 326 326 325 325 325 323 324 325 326 328 329 335 347 348 349 350 353 357 354 354 359 358 356 358 361 359 357 358 357 357 356 353 353 350 343 340 340 340 341 340 340 341 342 342 342 343 344 345 345 346 347 349 351 351 352 351 350 348 345 344 345 344 344 344 345 344 342 345 345 346 347 347 346 347 345 345 344 343 342 341 341 343 346 347 346
325 325 326 325 323 324 323 323 323 324 326 327 333 345 345 347 352 354 356 353 352 358 358 354 356 359 357 355 353 354 357 355 351 352 351 347 345 341 340 341 341 340 341 341 340 341 343 343 344 345 346 346 347 350 351 352 350 350 350 345 342 343 343 343 344 344 344 344 344 345 346 346 346 346 346 344 343 342 343 343 342 342 342 345 348 347
324 324 325 323 322 322 323 323 323 322 323 323 331 342 343 348 354 353 354 352 352 354 354 354 356 356 355 353 350 350 353 353 351 352 351 350 350 346 342 341 341 340 341 339 337 341 343 344 345 345 346 347 346 348 350 352 351 350 349 345 341 341 340 340 343 343 344 346 347 347 347 347 347 346 346 344 343 342 343 343 342 341 341 344 346 347
324 324 323 323 322 322 322 322 322 321 321 321 327 339 345 349 352 352 352 351 351 352 352 355 355 355 355 355 352 350 351 351 352 351 350 351 351 348 345 343 342 340 341 338 335 341 345 344 345 345 345 346 345 347 348 349 350 349 348 345 341 340 339 339 340 340 342 346 348 349 349 347 347 348 345 343 344 343 342 343 342 342 342 343 345 346
323 323 323 323 324 323 322 322 321 320 320 319 324 339 348 352 351 351 351 350 351 352 352 354 353 352 354 354 352 351 351 352 352 351 349 350 350 349 347 346 345 341 340 338 335 340 344 345 345 345 345 345 345 346 346 346 347 348 347 346 343 340 339 338 339 340 341 343 347 349 349 348 347 348 346 343 343 342 342 342 342 343 343 344 344 345
323 322 322 324 324 324 323 322 322 322 319 319 325 339 350 352 351 350 350 350 350 351 351 351 351 350 350 352 352 350 350 353 353 351 350 350 350 350 348 348 347 342 340 338 335 340 344 344 344 344 345 345 345 345 345 345 347 346 346 347 344 340 338 338 339 341 343 343 347 349 349 348 347 347 346 343 343 343 342 342 343 343 344 345 345 345
323 323 323 324 323 323 323 322 324 323 321 323 331 343 350 351 350 349 349 348 348 349 350 349 350 351 350 351 350 348 349 352 353 353 352 350 349 350 349 348 348 345 340 336 336 341 343 343 344 344 344 344 345 344 345 346 346 345 345 346 344 340 338 338 338 342 346 347 349 349 349 348 348 347 346 345 344 344 343 343 344 344 345 346 346 345
324 323 323 324 324 323 323 323 324 324 324 332 341 345 348 350 349 348 345 345 346 349 350 348 347 352 353 351 351 349 349 351 353 355 354 351 349 349 349 349 349 348 342 337 338 342 343 344 344 344 344 344 344 344 344 345 345 344 344 345 343 340 338 338 338 342 347 350 350 349 348 347 348 347 347 347 346 346 344 344 345 345 346 346 347 347
323 323 323 323 324 323 324 324 325 328 329 335 339 342 347 348 347 349 346 345 348 350 348 346 345 350 351 352 352 352 352 352 354 357 354 351 350 349 348 349 350 350 346 340 339 342 342 342 343 343 344 344 344 344 344 344 344 343 344 345 343 340 338 338 336 340 347 350 350 349 348 347 347 349 349 349 349 348 346 346 346 345 346 346 347 347
323 324 324 324 324 323 324 324 324 330 333 333 335 338 342 342 347 354 351 346 347 348 346 344 343 348 350 352 353 353 352 352 355 358 355 352 351 349 348 349 351 351 349 344 340 341 342 342 343 343 343 344 344 344 344 344 344 344 344 344 343 341 339 337 336 338 344 349 349 348 347 346 346 349 350 349 349 350 348 347 346 346 345 346 346 347
323 323 325 325 325 324 326 327 327 331 332 332 334 335 336 337 339 344 344 341 341 342 343 342 343 347 350 351 352 352 352 352 354 356 356 354 352 350 348 349 351 350 351 349 343 341 342 343 343 343 344 344 344 344 345 345 345 344 344 345 345 342 340 338 335 337 341 345 347 348 347 345 346 347 348 348 350 349 348 347 346 346 346 346 346 345
325 326 327 326 326 326 330 329 329 333 334 333 332 330 333 335 333 334 337 336 336 339 340 342 346 350 351 351 351 351 350 351 353 354 355 355 352 351 350 350 352 351 352 354 348 342 342 343 343 344 344 344 345 346 346 346 345 345 344 346 346 342 340 338 336 336 338 341 345 347 346 345 345 345 347 347 349 348 347 346 345 345 346 345 344 344
324 326 327 327 327 329 332 332 329 329 332 333 330 329 332 332 330 333 335 333 335 340 341 342 349 350 351 351 351 351 350 351 353 354 355 355 353 352 352 351 352 350 354 356 351 344 342 343 343 344 344 345 346 346 346 346 346 346 346 347 347 342 339 339 338 335 335 338 343 346 346 345 344 345 347 348 349 347 347 347 345 343 344 344 342 341
320 324 330 330 328 330 333 334 331 328 329 333 336 335 332 330 330 330 330 330 336 343 344 345 350 349 349 351 349 350 351 350 351 353 354 354 354 353 352 351 350 351 355 357 352 348 344 342 344 345 344 345 346 346 346 346 347 347 347 347 346 342 338 338 337 336 334 336 340 343 344 344 345 348 348 348 349 348 347 347 345 343 343 343 342 342
320 324 333 332 327 330 332 331 331 329 328 332 334 332 330 331 333 329 328 331 336 343 346 346 349 348 348 348 346 348 350 349 348 350 351 352 352 352 352 351 350 351 355 356 352 350 349 345 343 344 346 345 346 346 346 347 346 347 347 347 347 343 338 335 336 335 334 335 337 339 342 342 346 349 349 348 348 348 347 346 345 344 343 344 345 343
320 325 330 329 328 331 331 329 329 328 328 330 328 328 330 329 329 327 326 331 337 345 347 345 347 348 347 348 346 347 349 349 348 349 349 350 352 352 352 352 352 352 353 354 353 350 351 349 345 345 345 345 346 346 347 347 346 346 346 347 347 345 340 335 334 335 335 334 334 336 339 341 345 349 350 348 347 347 347 346 345 346 345 345 347 346
322 325 328 328 327 326 326 328 328 326 329 330 324 325 331 328 328 330 327 331 342 347 346 345 348 348 348 349 348 347 350 349 347 347 347 349 352 353 352 351 351 352 351 352 352 350 350 352 349 347 346 346 346 347 347 347 346 345 345 345 346 347 342 335 333 334 335 334 333 333 336 337 341 347 349 347 346 346 346 345 345 346 346 345 346 347
323 323 326 329 326 324 326 328 328 325 325 326 323 327 332 326 327 329 325 331 344 348 346 345 346 347 347 348 347 348 351 349 345 344 345 347 350 352 351 350 350 351 351 351 352 350 350 352 353 350 347 347 347 347 347 347 346 345 346 346 346 347 344 336 333 333 334 335 334 333 333 334 336 341 345 344 344 345 346 343 343 345 345 345 346 346
325 323 324 327 324 323 327 328 326 325 325 325 327 330 330 325 325 326 325 333 344 347 346 345 345 346 349 350 349 350 350 348 346 344 343 345 347 349 351 350 349 351 352 352 351 350 350 352 353 352 350 349 348 347 346 347 348 347 346 346 347 348 346 340 334 333 333 334 334 334 333 333 333 335 338 340 340 342 342 343 343 343 344 346 346 345
327 326 323 328 326 321 325 327 326 326 325 325 326 324 324 326 326 324 324 333 341 344 344 344 345 347 349 349 349 349 348 346 345 344 343 344 345 346 349 349 349 350 352 352 353 352 351 351 353 353 352 351 349 348 347 347 348 349 349 348 348 349 349 344 338 334 334 334 334 334 333 333 334 333 335 336 338 338 339 340 342 343 345 347 347 346
325 328 324 324 322 318 322 327 326 327 327 325 326 323 323 325 323 321 325 332 339 341 340 342 347 347 346 345 345 346 345 342 342 342 342 342 342 344 345 346 347 347 349 351 352 353 353 353 353 354 353 352 351 351 350 349 349 350 350 350 349 348 349 348 343 337 336 335 335 334 332 332 333 334 334 335 336 336 336 338 339 341 344 347 348 349
325 329 326 325 325 322 322 325 324 324 326 326 326 326 326 326 325 327 332 338 340 340 340 341 346 348 345 342 343 344 342 340 340 340 340 340 340 341 342 344 345 346 346 349 351 352 354 354 354 354 353 352 351 351 352 352 352 353 353 354 352 350 349 350 348 344 340 338 337 336 335 333 333 334 334 334 335 335 335 335 337 339 342 344 348 350
328 328 328 334 335 327 321 325 328 327 325 324 325 326 325 324 328 333 338 343 343 341 342 345 347 347 345 342 341 342 341 338 338 338 338 338 338 339 340 342 344 344 345 347 349 350 351 353 353 353 353 353 352 352 352 352 353 354 357 357 356 354 352 351 351 350 347 344 342 341 341 337 335 337 338 336 333 333 334 334 337 341 342 341 344 348
327 328 332 336 330 322 319 321 326 329 327 324 324 325 326 326 331 337 339 344 345 340 342 346 346 346 344 341 341 342 341 338 337 337 337 336 337 337 339 340 342 343 344 344 345 346 347 349 351 352 353 353 354 353 353 352 351 352 354 355 355 356 356 355 353 353 351 351 349 348 348 345 339 338 344 346 341 336 334 334 339 345 346 344 342 344
327 332 340 340 329 321 321 321 324 327 326 324 324 324 325 326 333 339 340 344 345 341 342 345 345 345 344 341 342 344 342 337 336 337 337 336 336 337 337 338 339 341 342 342 342 342 343 345 348 350 352 353 353 353 353 352 352 351 352 352 351 352 354 355 356 355 354 355 355 354 353 352 347 341 343 350 350 346 341 339 344 349 350 348 345 344
336 333 337 345 337 327 326 329 331 329 323 320 321 321 324 326 333 338 341 344 343 341 343 343 342 344 343 340 343 345 341 337 335 336 336 335 336 336 337 337 337 338 339 339 339 340 342 343 344 346 350 352 353 352 353 353 353 352 352 352 352 351 351 353 355 356 357 357 357 357 355 354 353 347 342 344 349 351 349 346 348 352 352 351 350 348
341 328 326 336 335 329 328 326 325 323 320 318 318 319 323 327 333 338 339 340 341 342 344 343 342 343 342 340 342 342 340 338 336 335 335 335 335 336 336 336 336 336 336 336 336 338 340 342 342 343 345 347 348 348 350 351 352 353 353 353 353 353 352 353 354 353 354 356 356 356 355 354 353 352 349 345 345 348 351 350 350 352 353 352 351 349
335 328 322 324 324 324 324 321 321 322 319 318 319 320 325 330 336 339 338 340 344 345 343 342 342 341 340 340 339 338 337 338 336 335 335 334 335 335 335 335 335 335 334 334 334 335 336 338 339 341 342 343 343 343 344 345 348 351 353 354 354 353 353 353 353 352 351 352 353 353 354 353 352 352 351 350 347 346 351 353 352 352 353 352 350 350
331 332 325 322 322 322 322 322 323 321 318 318 319 320 326 334 338 339 338 340 344 344 340 340 342 340 338 338 337 335 335 335 335 334 334 333 334 334 334 334 334 334 334 334 334 334 334 334 335 337 339 341 342 342 342 342 345 347 350 352 352 352 352 352 351 352 351 350 350 351 351 352 352 352 351 351 349 346 348 352 353 352 352 351 350 350
325 327 325 329 328 322 322 323 322 320 320 321 321 320 326 335 341 340 339 339 341 340 338 339 340 339 336 334 333 333 334 333 333 333 333 333 334 333 333 332 333 333 334 334 333 333 334 334 334 335 337 339 340 341 342 341 341 342 345 348 348 349 351 352 352 352 351 350 350 350 350 350 351 351 351 350 349 346 345 347 352 353 352 349 349 348
322 323 327 335 331 322 321 321 319 320 321 321 323 322 324 333 340 340 340 339 339 338 337 338 338 337 334 331 330 331 331 332 332 332 331 332 332 332 332 331 331 332 333 334 333 332 333 333 334 334 335 336 338 340 341 340 340 338 338 341 344 345 346 349 351 351 351 351 351 351 351 351 351 351 351 351 350 349 349 350 351 353 352 350 348 347
326 326 326 330 328 323 320 320 325 329 323 321 325 322 319 329 340 340 339 339 337 337 337 337 337 335 332 331 330 330 330 330 330 330 331 331 331 331 331 330 328 329 331 333 332 332 331 331 332 333 333 334 336 338 339 340 339 337 334 334 338 343 344 345 346 348 348 349 350 351 351 351 352 352 352 352 352 352 352 352 352 352 352 350 349 347
330 331 328 327 326 324 323 328 335 333 323 321 326 323 321 331 341 341 339 337 336 336 336 335 335 333 332 331 330 329 329 329 330 330 331 330 330 330 330 329 326 325 329 331 330 330 330 328 330 332 332 332 332 334 337 338 339 338 334 329 329 335 338 339 341 342 342 345 347 348 350 350 351 352 352 353 353 353 353 353 353 352 352 351 349 348
330 330 328 328 326 324 329 334 329 322 322 326 328 324 326 334 338 338 338 336 336 336 335 334 334 333 332 330 329 330 329 330 330 330 330 329 329 329 329 328 326 324 326 328 327 327 328 327 327 328 331 331 330 329 331 332 332 333 331 325 322 323 326 328 331 334 336 340 343 344 346 348 349 350 351 351 351 352 353 353 353 353 352 352 351 349
328 328 327 329 327 324 328 332 324 319 324 332 329 324 328 335 336 337 337 335 334 334 334 334 333 332 331 330 329 329 329 328 328 329 328 327 326 326 327 326 326 324 324 324 325 325 326 326 325 326 329 330 330 328 327 326 324 322 323 323 322 320 320 320 322 324 328 332 337 340 342 344 345 347 348 349 349 350 351 352 352 352 352 353 353 352
330 333 329 329 328 326 325 328 329 326 324 330 331 323 323 332 336 337 338 334 331 331 332 332 333 332 331 330 330 329 328 326 326 326 327 326 325 325 325 325 324 323 322 322 323 324 324 324 324 324 326 327 328 328 327 326 324 320 318 320 321 319 319 319 319 319 320 323 327 331 334 337 340 343 344 346 347 347 348 350 351 351 352 352 353 353
326 329 330 330 329 331 331 329 330 327 323 328 333 323 319 329 333 333 336 335 331 330 331 331 332 331 330 330 329 329 328 327 326 325 323 324 325 325 324 323 322 321 320 320 321 323 323 323 323 323 323 323 324 325 326 326 324 319 315 317 321 321 320 320 319 318 318 319 320 322 324 328 333 339 342 343 344 345 346 347 348 349 350 351 352 353
324 329 335 335 329 330 330 327 326 325 325 331 335 323 319 328 330 330 337 337 332 329 330 331 331 330 330 330 329 329 329 330 329 324 320 321 323 322 322 321 321 321 320 319 319 320 321 322 322 322 322 320 321 322 323 322 319 315 313 314 318 319 320 321 321 319 317 319 319 319 319 321 326 332 337 339 341 342 343 344 346 347 348 349 350 351
329 332 331 327 325 328 327 325 326 327 326 328 328 319 316 322 326 330 336 336 330 327 330 331 330 330 330 330 329 328 329 331 328 323 320 321 321 321 321 321 320 320 320 319 318 318 318 320 319 319 318 318 318 318 318 315 313 312 312 312 313 314 317 321 323 320 317 317 319 320 319 318 319 322 326 329 331 333 333 335 339 342 345 346 347 348
326 329 325 320 321 325 325 324 325 327 326 324 322 317 314 318 321 325 330 330 325 325 329 331 331 331 331 329 329 329 328 328 326 322 321 321 321 321 321 320 321 320 320 319 318 317 318 318 318 317 316 315 315 315 314 312 311 311 311 312 313 313 315 319 321 319 315 314 317 319 320 319 317 317 318 320 322 323 322 324 331 337 340 343 346 347
322 326 325 321 320 321 326 329 327 325 323 320 318 316 316 321 322 322 323 324 322 324 329 330 330 331 330 328 329 328 326 325 323 321 321 321 321 321 321 321 321 320 320 319 319 318 318 317 316 315 314 314 315 316 316 314 312 312 312 311 312 312 314 316 317 315 314 314 315 317 319 319 317 315 316 317 318 319 319 323 330 335 338 341 343 345
324 324 323 324 323 325 328 329 328 328 325 320 319 320 324 326 325 322 321 322 321 323 326 327 328 330 329 326 327 326 324 322 321 321 321 321 321 321 320 321 321 320 319 319 318 318 317 316 314 312 311 311 313 315 317 316 314 313 313 312 312 312 312 313 313 311 313 316 317 316 316 316 315 314 314 315 316 317 318 321 327 332 336 339 341 343
325 328 329 328 327 328 330 328 328 329 327 322 321 324 325 326 324 322 320 320 321 322 323 323 324 326 326 324 323 323 322 321 321 321 321 321 321 321 320 320 320 319 319 318 317 316 315 313 311 310 309 309 310 312 314 314 313 313 313 313 313 313 311 311 311 310 312 316 317 316 314 313 312 312 312 314 316 317 318 320 323 326 330 333 335 336
326 330 332 328 325 327 331 330 326 325 324 322 323 323 323 323 322 322 321 320 320 321 321 321 320 321 322 322 321 320 320 320 320 320 320 320 320 320 320 320 319 319 318 317 315 314 312 311 309 309 309 309 310 310 311 311 311 312 313 313 313 313 312 312 311 311 311 312 314 316 315 312 310 310 311 314 317 319 321 322 322 320 321 323 324 324
322 323 326 325 324 326 328 325 323 323 324 323 323 323 322 322 321 322 321 320 320 320 320 320 319 318 319 320 319 319 319 319 319 319 319 319 319 319 319 319 318 318 316 315 314 313 312 311 311 311 311 311 311 310 310 310 310 310 311 312 313 313 313 313 313 313 312 311 311 312 313 313 313 312 313 317 320 321 324 326 325 320 317 317 316 316
321 321 323 325 326 327 326 323 322 324 324 323 323 323 322 321 321 321 321 320 320 320 319 319 319 318 318 319 319 318 318 318 318 318 318 319 319 318 318 318 317 317 316 315 314 313 313 313 313 312 312 313 312 312 312 311 311 311 310 311 311 311 311 312 313 313 312 311 311 310 310 315 319 319 319 321 321 321 323 326 325 321 317 315 314 314
323 321 324 327 327 324 323 322 322 323 322 322 323 322 321 321 321 320 320 320 319 319 319 319 319 318 318 317 317 318 317 317 318 318 318 318 318 318 318 317 316 315 315 315 314 314 315 314 313 313 313 314 314 314 313 312 311 311 310 309 309 309 309 309 309 310 310 310 310 310 313 319 323 323 324 325 324 322 323 324 323 320 317 315 315 316
322 322 324 325 325 324 324 323 322 322 322 321 322 322 321 322 321 320 320 320 320 320 319 319 319 318 317 317 317 317 317 317 317 317 318 317 318 318 317 316 315 315 315 315 315 315 314 314 313 313 314 314 314 313 313 312 310 309 307 307 307 307 307 307 307 308 308 309 309 310 314 321 325 325 325 325 326 325 325 324 321 318 316 316 317 319
321 323 323 324 326 328 328 325 323 323 322 320 321 322 320 320 320 319 319 319 320 320 319 319 318 318 318 317 317 317 317 317 317 317 317 317 317 317 316 315 315 315 315 315 315 314 314 313 313 313 314 313 313 312 311 310 308 306 306 306 306 306 307 308 308 309 309 310 309 309 312 318 322 324 324 325 325 324 324 323 321 318 318 317 317 318
321 323 326 329 331 329 325 322 322 323 322 321 320 321 320 319 318 318 318 318 319 319 320 319 319 318 318 317 317 316 316 316 317 317 317 317 317 317 316 315 315 315 315 314 314 314 313 313 313 313 313 313 312 312 310 308 306 306 307 307 307 306 307 308 309 310 311 312 312 312 311 313 316 320 322 324 324 323 323 324 323 321 321 320 318 316
Wind_Speed
5 3 2 5 5 8 8 5 6 6 6 5 4 7 10 8 5 4 3 7 11 6 4 5 5 7 10 10 7 10 11 8 10 11 15 28 32 31 29 30 32 29 32 35 31 31 32 32 30 26 25 25 25 25 25 24 21 18 18 19 18 16 16 16 16 15 14 14 13 13 11 11 11 11 10 11 13 13 14 14 14 15 14 14 14 13
5 4 5 8 8 10 8 4 5 7 8 7 3 6 7 6 3 3 5 6 5 2 2 3 6 5 7 9 4 6 10 7 9 12 12 20 25 27 30 32 31 29 33 35 30 31 33 32 30 28 28 28 27 27 27 26 23 20 19 19 18 16 16 16 15 14 14 13 12 13 13 12 12 11 10 10 12 13 13 13 13 14 15 14 13 13
3 4 8 10 9 9 8 6 7 9 7 6 3 5 5 6 6 4 6 7 2 1 2 3 6 4 3 5 2 2 3 7 10 11 12 14 15 20 29 32 29 29 34 35 29 29 34 34 32 31 30 28 26 27 27 26 24 23 21 20 20 18 17 17 15 13 12 11 10 10 10 10 10 10 10 10 12 13 12 12 13 14 16 15 13 13
4 6 11 12 8 8 9 8 8 8 6 4 4 5 5 10 9 1 3 6 2 2 5 5 5 3 1 3 3 5 3 4 7 8 9 9 10 14 23 27 27 31 35 34 29 30 35 36 34 33 31 29 26 26 28 27 26 25 22 20 21 19 18 18 16 13 11 11 9 7 7 8 9 9 9 11 12 12 12 12 12 13 14 15 14 13
5 9 12 11 7 8 9 9 8 6 6 5 5 6 6 11 10 6 8 6 3 3 5 7 4 2 3 5 5 2 2 1 2 5 7 5 7 11 18 20 22 31 37 34 30 32 37 38 36 34 31 29 27 26 27 27 26 25 22 20 21 21 20 19 17 14 13 12 12 10 8 9 10 9 9 11 12 12 12 12 12 13 13 14 14 13
8 13 11 9 7 8 8 9 9 6 5 5 5 10 12 13 10 13 15 8 4 1 5 6 3 1 3 5 5 1 2 3 2 2 6 6 6 8 16 16 15 27 37 33 30 34 38 38 37 34 31 29 27 26 25 24 25 24 22 20 19 21 21 20 19 17 15 15 15 13 12 12 12 11 11 11 11 12 12 12 12 12 12 12 12 12
7 12 9 8 9 10 8 9 9 7 4 5 5 11 15 17 15 17 17 9 3 2 5 6 2 1 2 3 5 2 2 3 0 2 7 9 10 8 14 15 12 20 32 33 30 35 38 38 37 34 31 30 28 26 24 23 24 23 23 21 20 23 23 21 21 19 17 17 16 14 13 13 12 12 11 10 10 10 11 11 11 11 11 11 12 12
6 10 8 8 10 8 7 8 8 7 6 5 5 12 18 19 19 19 15 6 3 3 3 5 2 3 1 2 6 6 3 2 2 4 7 11 14 12 13 14 12 16 26 31 32 37 40 38 37 35 32 30 27 25 24 25 25 23 24 22 20 24 24 23 23 22 20 19 17 15 13 13 12 10 10 10 10 10 11 11 11 11 11 11 12 12
6 8 8 8 8 6 6 9 9 8 6 6 4 16 19 18 19 17 11 5 4 4 3 6 3 3 0 2 7 7 6 6 7 7 7 12 18 17 15 15 13 13 19 27 32 38 40 38 37 34 31 30 27 26 25 25 24 24 24 23 21 24 25 24 24 23 23 21 18 17 14 14 13 11 10 10 11 11 12 12 11 11 11 11 12 11
6 11 12 8 6 6 8 10 8 7 6 4 8 13 13 12 11 9 7 5 5 4 4 8 6 4 0 2 6 7 6 8 9 7 9 15 21 21 18 16 14 12 15 22 31 39 40 38 37 33 30 30 28 27 25 24 24 24 25 24 22 24 25 25 25 24 25 23 21 19 17 15 14 13 13 12 12 12 12 12 12 12 12 12 12 12
8 14 12 7 7 9 10 10 9 10 8 5 8 8 9 10 5 3 3 4 5 0 5 10 8 4 2 3 6 6 5 8 9 6 9 16 20 23 23 19 15 12 13 18 27 37 40 38 36 33 31 30 29 28 26 23 23 24 26 25 23 23 24 26 25 25 26 25 22 20 18 17 16 16 15 14 14 13 13 12 12 13 12 12 12 12
5 9 7 5 10 10 8 8 9 9 5 4 5 5 7 5 2 3 3 4 3 4 5 11 9 3 2 4 6 6 3 5 9 8 9 14 19 25 25 22 18 14 12 14 22 34 40 37 36 34 32 31 30 29 26 23 22 24 25 24 24 24 25 26 26 25 26 26 24 21 18 17 17 16 16 16 15 14 14 13 13 13 13 13 12 12
3 6 5 4 7 8 5 3 6 4 2 5 5 5 5 2 1 2 1 1 3 5 5 13 9 2 0 2 2 6 5 3 6 8 12 16 21 26 26 23 21 16 11 9 15 31 40 37 37 36 33 32 31 29 26 23 22 23 24 23 24 25 25 25 26 25 24 25 26 23 20 17 17 16 16 15 14 14 14 13 14 14 13 13 13 12
2 6 5 3 3 6 6 3 3 3 1 3 4 5 5 4 3 3 4 3 2 2 1 8 8 2 2 2 5 1 2 7 8 5 10 13 16 22 23 22 20 14 9 6 9 25 39 39 37 36 34 33 31 29 26 24 22 22 23 23 23 24 25 25 26 25 24 25 26 25 22 19 19 18 17 16 14 14 14 14 14 13 12 12 12 12
4 4 5 2 3 4 5 5 6 4 1 2 4 5 5 4 4 4 4 3 2 2 3 4 4 1 2 3 7 5 11 16 15 11 7 8 9 14 18 20 21 14 7 7 7 14 29 38 37 36 34 33 31 30 27 25 24 22 23 22 22 23 25 25 25 25 24 25 26 26 24 22 21 20 18 17 16 14 14 14 14 13 12 11 11 11
5 5 6 4 4 4 4 4 6 5 1 2 2 5 3 3 3 3 3 4 6 4 3 4 2 1 2 4 7 6 11 15 14 11 7 8 8 10 11 15 19 13 7 11 10 7 12 28 36 35 34 33 31 31 29 27 25 24 23 22 21 21 24 25 25 25 25 25 26 26 25 24 22 21 19 19 18 16 15 14 13 13 12 11 11 11
3 5 6 2 2 3 5 6 5 5 2 1 1 3 4 4 3 3 2 5 7 5 3 2 3 3 3 3 6 5 8 9 9 10 7 4 7 11 11 10 12 11 8 11 15 10 5 15 31 34 33 33 33 32 31 29 26 24 22 22 21 20 22 25 25 25 24 25 26 26 25 25 24 22 21 19 19 18 16 15 14 13 12 12 12 12
3 3 6 1 2 1 5 9 6 4 5 3 1 3 3 1 2 3 3 4 4 4 1 1 3 4 3 1 1 2 8 8 8 9 10 9 9 15 15 12 10 11 10 11 16 17 9 8 20 29 30 30 34 35 34 31 28 24 21 21 21 21 22 25 25 25 25 25 25 25 25 25 24 24 22 20 19 19 18 17 16 15 14 13 13 13
3 1 6 2 4 1 3 8 4 4 5 6 3 1 2 2 1 0 2 3 3 3 2 1 2 1 1 1 3 4 7 9 8 8 8 9 10 16 19 17 14 12 12 12 16 20 16 8 11 22 26 27 32 37 36 34 31 27 23 21 20 19 19 23 25 25 25 25 25 25 25 24 23 24 23 21 19 19 19 19 18 17 16 15 14 14
2 4 4 5 2 2 4 4 3 3 4 3 2 3 2 3 3 1 1 3 4 4 5 1 2 1 1 1 4 5 7 10 8 7 8 9 10 14 19 20 18 16 15 14 16 20 20 13 9 15 19 22 29 33 34 34 33 30 27 24 22 20 19 22 24 25 25 25 25 24 24 24 23 23 22 22 20 19 20 19 19 18 17 16 16 16
2 4 1 5 2 3 2 0 4 4 1 2 3 2 1 1 1 1 1 2 5 4 5 4 1 2 2 0 2 2 5 9 8 6 8 10 12 14 16 20 20 18 15 14 15 17 19 19 13 11 14 17 24 27 27 29 32 33 31 28 26 23 21 21 24 25 25 24 25 25 24 24 24 23 22 21 21 20 19 19 19 19 18 18 18 17
2 2 1 3 3 3 3 5 5 7 5 4 3 2 3 1 0 1 2 2 3 4 4 5 4 1 1 3 3 1 3 9 11 10 10 12 15 18 18 21 23 19 15 12 13 14 16 17 14 14 15 16 19 21 21 24 29 32 33 31 29 26 23 21 21 23 24 24 24 24 24 24 24 24 23 23 22 21 20 20 20 19 18 19 19 19
1 2 2 2 2 2 4 3 3 5 4 5 3 1 3 3 3 4 3 2 3 4 4 4 4 3 3 2 1 1 7 14 15 14 14 13 16 19 20 22 23 21 17 14 15 15 16 16 12 13 17 18 19 20 19 20 23 28 32 31 30 29 26 24 23 23 24 23 24 24 24 24 23 23 24 24 23 23 22 21 20 19 19 19 20 21
3 2 3 3 4 4 4 4 5 5 5 4 1 2 0 2 4 4 4 4 4 4 4 4 3 2 2 1 1 4 13 17 15 15 17 16 16 18 20 22 23 23 20 17 17 19 19 18 16 15 16 18 21 21 20 20 21 24 28 29 29 30 28 26 25 25 25 24 24 23 24 24 23 23 23 23 24 24 23 22 21 20 20 20 20 22
4 2 3 2 3 4 5 6 6 6 4 2 1 3 3 2 8 7 3 4 3 1 3 5 4 2 3 5 4 5 10 15 14 15 18 18 18 19 20 22 24 25 24 21 18 19 21 22 21 20 18 16 17 17 18 21 22 21 22 24 26 28 28 28 27 27 27 26 26 25 25 24 24 23 22 21 22 23 23 23 22 21 21 21 21 21
2 3 3 4 4 3 2 1 2 3 2 1 1 2 4 4 7 6 4 4 3 3 3 4 5 5 4 6 4 2 7 12 14 15 17 18 19 20 21 23 25 26 25 24 23 22 21 21 20 21 21 18 16 13 13 15 18 18 19 19 21 23 24 26 27 28 28 27 27 27 27 27 26 24 22 21 22 23 23 23 23 22 22 22 21 21
3 4 3 5 6 6 5 4 4 3 1 2 3 4 5 5 6 6 5 3 4 6 5 2 9 13 8 7 6 4 7 10 12 16 17 17 19 22 22 23 25 26 26 25 26 26 24 21 19 18 19 19 17 16 15 14 13 14 16 17 17 19 21 22 23 26 28 28 28 28 28 28 28 26 24 23 22 23 23 24 25 25 24 24 23 22
4 4 4 3 3 5 6 1 3 4 5 6 7 8 7 6 7 6 5 6 7 7 4 3 11 16 12 9 8 8 8 8 11 17 19 19 21 24 23 23 23 24 25 26 26 26 26 26 24 21 19 17 15 15 15 14 14 13 14 15 16 16 18 18 18 19 20 22 23 25 26 27 29 28 26 24 23 22 23 25 27 27 27 27 26 24
4 3 4 2 3 2 2 5 7 7 5 6 9 9 7 6 7 7 6 7 6 7 8 9 10 13 13 11 10 10 12 14 15 18 21 21 22 25 24 23 21 21 23 25 26 26 26 27 27 26 24 21 19 18 16 13 13 14 15 14 13 14 16 17 16 15 14 15 17 20 22 24 27 29 28 26 24 22 22 24 27 29 30 30 29 27
3 2 5 2 4 5 6 7 7 7 7 8 9 8 7 8 8 8 7 5 7 11 14 13 10 9 8 9 10 13 17 20 20 20 21 20 22 25 26 24 21 21 22 23 24 24 24 25 25 24 24 23 22 22 21 18 13 10 12 13 12 11 12 12 12 13 13 13 14 17 20 21 24 27 28 27 25 22 22 24 27 30 32 32 31 30
4 1 6 2 4 5 7 8 7 7 9 9 10 10 9 11 10 10 10 11 13 14 14 15 12 6 5 10 14 17 20 21 21 20 19 20 23 25 26 26 24 22 22 23 23 23 24 24 23 22 22 23 23 22 23 22 18 12 8 9 8 9 11 12 13 14 14 14 13 14 17 18 21 24 26 26 26 24 24 25 28 32 33 31 30 29
4 1 4 4 5 3 6 8 7 7 9 10 10 10 7 7 7 8 10 12 15 16 14 14 10 4 6 14 17 20 23 22 21 21 21 21 24 27 27 27 25 23 22 22 23 22 22 22 21 20 21 22 23 23 23 22 21 19 14 7 5 6 7 8 10 12 13 13 12 10 10 12 15 17 20 22 22 23 25 27 30 33 33 31 30 28
2 2 2 3 3 3 6 7 5 6 7 5 4 5 4 4 7 7 8 12 18 19 14 10 8 7 11 16 16 16 19 20 21 23 24 24 26 28 27 26 25 23 23 22 22 22 21 20 19 19 19 20 21 22 21 20 19 19 18 14 9 7 6 4 4 6 8 10 9 8 8 8 10 11 13 16 18 20 25 30 33 33 32 31 30 29
2 3 1 1 3 3 7 6 5 6 4 3 6 5 4 8 10 9 10 12 14 12 9 9 9 8 11 14 15 15 17 20 24 26 25 25 27 28 27 24 24 24 23 23 22 20 19 19 19 17 17 18 18 19 18 17 17 15 15 15 15 13 10 7 5 4 5 6 6 6 6 7 7 9 10 13 15 17 21 26 30 31 30 30 31 31
4 4 1 1 3 1 4 5 6 3 2 6 7 4 4 11 12 12 9 8 10 13 15 14 11 10 12 17 21 23 24 25 25 24 23 22 24 26 26 24 23 23 23 23 21 19 18 19 18 16 16 15 14 15 15 13 12 12 12 14 16 16 15 13 11 9 7 6 5 5 5 6 7 8 8 9 11 14 15 17 21 24 26 27 28 30
3 2 1 1 2 1 2 4 3 3 5 5 7 7 6 10 14 14 8 5 6 13 16 13 11 13 18 21 24 27 29 27 23 21 21 21 21 23 24 24 23 23 22 21 20 19 18 17 16 16 16 14 12 12 13 12 11 11 12 12 14 15 15 14 13 12 11 9 7 5 3 4 6 8 10 8 8 9 11 12 14 16 19 21 23 26
5 2 2 2 1 2 2 2 1 1 2 5 5 4 2 4 9 11 7 3 3 10 14 12 11 14 19 22 24 26 28 27 19 16 20 22 21 22 23 23 22 21 21 20 18 17 17 15 14 13 13 12 11 11 10 9 9 10 11 11 12 12 12 12 13 13 12 11 10 9 7 4 2 4 7 9 9 8 9 10 11 13 15 17 19 21
5 4 3 2 1 2 4 3 3 2 0 3 6 6 1 6 10 11 10 3 1 10 19 16 12 15 19 21 24 25 23 17 9 9 20 24 24 25 25 22 21 19 18 18 15 14 13 12 11 9 8 7 8 8 7 5 5 6 7 8 10 10 9 10 11 11 12 11 11 10 8 7 6 5 4 4 6 7 7 8 10 11 12 14 17 19
5 4 4 4 2 3 4 3 2 2 3 5 7 6 2 14 16 12 9 2 4 11 23 22 17 19 21 23 25 22 15 8 3 9 22 27 25 26 26 22 19 17 15 13 11 10 9 8 7 6 5 4 4 4 3 2 3 4 4 5 6 6 7 8 8 9 9 9 10 10 9 8 7 6 4 2 0 1 3 5 8 10 10 11 13 16
5 4 4 4 3 2 2 3 1 2 2 4 6 5 2 12 14 10 5 4 5 10 22 25 24 24 24 24 23 15 8 7 10 16 24 26 23 22 21 18 16 13 11 10 8 5 5 4 2 2 1 1 1 2 2 2 3 3 2 3 3 3 5 6 6 6 6 6 7 8 7 8 8 7 6 5 4 5 5 5 5 6 8 8 9 12
3 3 2 3 2 2 3 3 0 1 2 3 3 5 3 4 7 7 4 6 3 9 20 25 26 26 25 25 21 12 9 17 23 26 26 24 21 18 17 15 13 11 9 7 4 2 3 2 1 1 2 2 2 3 2 2 2 2 2 2 2 3 3 3 3 4 6 6 5 4 4 5 7 8 8 8 7 7 8 8 6 5 5 5 6 8
1 2 2 2 1 1 2 3 1 1 2 3 3 9 9 3 2 2 3 2 6 16 23 25 26 27 27 25 22 17 18 24 29 28 25 22 20 18 15 12 10 8 6 4 2 3 3 2 2 3 4 3 3 3 3 2 1 2 3 3 3 3 2 3 4 4 4 6 7 6 4 2 4 7 9 9 9 8 9 9 7 5 5 4 5 7
2 1 2 1 1 1 3 3 2 2 4 5 4 6 8 3 5 6 7 9 15 23 25 25 27 29 28 26 24 25 27 28 28 26 24 22 20 17 14 10 8 6 5 3 3 4 5 5 6 7 7 6 5 4 4 4 3 3 3 4 4 4 3 5 7 6 5 5 7 9 9 7 5 6 8 9 9 9 9 8 6 5 5 5 6 8
1 2 1 2 0 2 2 0 2 5 3 3 4 3 4 8 12 15 18 18 19 24 27 26 26 29 32 31 31 32 31 29 27 25 24 22 19 15 12 9 7 7 6 5 5 7 8 8 9 9 8 8 7 6 6 6 5 4 4 4 5 5 4 5 6 6 6 7 7 9 11 11 10 7 7 8 8 8 7 7 6 6 6 6 7 9
2 4 4 2 1 2 3 4 5 5 5 11 15 14 15 17 18 20 23 22 21 24 27 28 28 30 33 34 33 32 29 27 25 23 21 19 16 14 12 10 9 8 7 7 7 8 9 8 8 8 7 7 7 7 8 8 7 7 6 6 6 6 6 6 6 6 6 8 8 9 10 11 12 10 7 7 7 8 8 8 8 9 9 9 10 11
1 2 4 2 1 1 2 5 6 9 13 18 19 18 18 19 18 19 22 22 20 21 25 28 29 30 32 32 31 29 27 24 22 20 19 18 16 15 14 12 11 9 8 8 7 8 7 6 6 7 6 7 8 8 9 9 9 9 9 8 8 8 8 8 8 8 8 8 8 9 9 9 10 10 8 7 7 8 8 9 10 11 11 11 12 13
3 3 2 2 2 1 2 2 3 10 17 20 20 17 16 17 16 16 18 20 20 20 21 24 25 26 26 26 27 27 25 23 22 21 19 19 18 16 14 12 10 8 6 6 6 6 5 5 6 6 5 6 8 9 10 10 10 11 11 11 11 11 10 10 10 10 10 10 8 7 6 7 7 8 8 8 9 9 9 9 11 12 13 14 15 15
3 4 2 2 3 2 1 2 4 12 16 17 18 17 16 15 15 13 13 15 17 18 19 20 21 22 22 21 22 23 23 22 21 21 20 19 18 16 14 12 9 7 6 5 5 4 5 6 6 6 6 7 9 11 12 12 12 13 13 13 13 13 12 12 12 12 11 11 9 6 4 5 5 5 6 8 11 12 12 13 14 15 15 15 15 16
2 4 0 2 3 1 2 4 6 9 7 7 9 16 17 16 15 13 13 14 15 16 17 17 17 18 20 20 19 21 22 21 20 20 20 19 18 16 13 10 8 8 8 7 6 6 6 6 6 6 7 9 11 13 14 15 15 14 12 12 14 14 12 12 13 13 12 12 10 7 5 6 6 6 7 9 11 13 15 17 17 17 16 14 13 13
2 2 0 3 3 1 3 2 3 5 4 6 4 9 15 17 17 16 16 16 17 17 18 18 18 18 18 19 19 19 20 20 19 19 19 17 16 14 11 9 9 10 9 8 8 8 7 6 7 8 9 10 13 15 16 16 14 12 11 12 13 13 13 13 13 12 12 12 12 10 7 8 9 10 9 11 13 14 16 17 18 16 15 15 13 13
2 1 2 4 3 4 4 1 2 5 7 7 8 5 7 11 14 16 17 18 18 19 19 20 21 20 18 19 19 17 16 18 19 18 16 15 14 13 11 11 12 11 10 10 9 8 7 7 8 9 10 11 14 15 16 15 13 12 11 12 13 13 13 13 13 12 12 12 12 12 11 11 12 12 11 12 14 14 14 16 18 18 18 18 17 15
Wind_Direction
186 111 182 210 218 231 233 198 196 232 262 250 167 140 163 176 190 171 125 159 158 149 177 165 149 156 162 177 182 156 151 139 114 107 146 164 168 171 171 174 178 174 166 167 172 177 178 178 178 177 176 175 173 172 174 177 182 182 182 184 186 186 182 180 175 168 170 166 154 153 153 153 154 156 156 157 161 164 168 173 174 176 178 177 177 177
177 163 218 219 218 231 244 236 232 241 244 250 196 151 168 165 134 101 110 136 144 119 163 143 130 146 164 168 171 148 145 135 120 103 120 158 168 169 169 170 174 173 167 168 172 175 177 178 178 178 177 176 172 173 177 180 184 187 188 189 188 187 188 191 186 176 174 169 158 154 153 153 153 155 159 161 163 165 168 173 176 179 179 178 179 181
178 214 233 220 222 236 249 251 252 258 250 252 207 165 169 130 86 51 95 96 28 10 109 126 128 143 178 143 61 356 141 138 133 117 119 146 156 162 168 170 172 171 168 170 173 175 177 177 177 177 177 176 174 175 180 184 186 188 193 194 190 187 188 193 197 190 181 171 162 155 150 149 150 153 159 162 163 163 165 169 174 180 183 183 184 186
190 229 230 219 218 226 245 246 242 260 261 243 188 169 173 146 133 136 120 96 27 55 119 136 129 143 208 125 99 336 345 121 124 127 132 135 134 148 165 172 172 170 170 171 173 173 175 175 175 176 176 176 176 179 184 187 188 190 197 195 188 187 187 190 197 198 188 173 164 159 152 150 152 156 160 164 163 163 165 168 172 178 182 185 188 191
225 234 221 212 210 211 237 246 234 246 254 243 193 174 174 162 156 140 134 128 88 72 140 141 105 170 191 150 161 319 353 146 85 140 161 151 140 148 163 172 172 171 172 172 172 172 172 174 175 176 177 178 180 182 186 190 193 195 196 191 185 186 186 188 193 195 188 175 168 167 167 167 166 166 170 167 162 164 169 170 172 175 178 183 188 191
242 245 224 203 210 209 229 249 239 226 240 270 217 184 171 157 141 123 131 136 101 72 207 164 88 263 180 144 165 164 128 187 320 199 201 205 192 167 165 171 172 173 174 173 176 174 172 174 175 176 179 181 183 186 189 194 196 197 196 192 189 187 185 186 190 192 189 180 173 174 177 179 179 180 180 170 163 168 169 168 170 174 178 182 185 187
236 243 223 200 211 208 218 242 243 217 210 274 235 182 158 142 136 138 142 144 135 178 209 192 145 122 156 143 161 161 140 172 44 244 234 229 224 196 171 175 171 172 176 176 177 175 173 175 176 177 181 183 186 190 193 195 197 198 198 197 194 187 185 185 187 189 189 184 180 183 187 187 188 187 182 172 168 171 171 171 173 175 180 183 185 188
225 231 217 206 211 206 213 232 236 199 176 261 237 153 141 141 149 154 148 140 151 134 144 203 197 104 148 138 138 157 177 217 229 223 234 231 228 212 183 184 177 169 179 179 175 175 176 178 179 180 183 187 190 192 195 196 199 201 200 202 197 188 185 185 186 187 187 188 188 190 193 192 192 189 181 175 173 177 178 178 179 180 182 184 187 189
228 216 209 200 206 209 216 224 220 185 180 251 191 143 144 151 155 152 138 117 120 106 127 220 209 99 139 123 128 153 178 216 221 207 213 219 221 216 196 194 189 172 182 184 176 175 179 181 183 184 185 189 192 194 199 200 202 205 204 205 198 189 188 187 188 188 187 190 194 195 194 191 189 184 182 178 176 183 186 183 182 184 185 186 190 191
249 231 214 182 192 217 223 234 218 186 206 215 143 136 137 141 142 132 123 112 100 104 192 213 194 124 199 193 147 164 191 212 213 198 201 209 214 215 205 204 204 183 184 190 181 178 182 184 185 187 188 191 194 196 201 204 207 208 206 207 202 192 191 191 191 190 188 191 197 199 195 192 188 182 183 182 178 186 191 187 186 187 186 186 191 191
257 256 240 190 200 213 215 235 221 198 209 177 137 135 128 130 127 97 99 96 91 245 215 196 194 149 137 226 183 178 194 194 195 189 190 198 205 209 209 212 215 196 184 192 187 180 182 186 187 188 189 192 195 196 199 204 208 208 207 208 206 198 194 193 194 192 190 193 199 201 197 194 191 185 186 186 183 187 192 192 191 190 188 187 190 191
270 269 261 211 214 210 205 230 225 210 197 128 126 131 128 129 83 65 39 61 119 252 224 183 189 135 116 236 209 197 214 176 183 191 184 184 192 201 208 215 216 202 183 187 191 183 180 182 186 187 189 192 193 195 198 204 207 207 207 208 208 204 198 195 196 195 194 195 199 202 200 196 195 192 191 192 190 191 193 193 194 193 190 189 191 192
296 251 250 249 230 200 172 222 233 243 44 88 110 114 122 132 80 115 119 113 191 259 209 170 164 82 353 277 186 189 217 176 167 186 188 182 183 191 202 210 208 199 183 175 188 186 181 181 184 187 190 192 193 195 198 202 205 205 206 208 210 208 201 198 199 198 197 196 198 201 202 199 200 201 198 196 195 194 192 190 192 194 192 191 193 192
283 261 254 287 264 187 148 134 204 240 9 113 137 132 131 150 158 162 171 180 208 299 107 144 127 68 269 347 19 63 97 79 87 128 177 179 180 188 197 202 199 195 188 174 179 186 184 183 185 189 192 192 194 197 199 202 205 205 206 209 212 211 205 201 201 200 199 197 197 199 202 200 200 204 203 203 201 196 192 191 193 196 193 194 197 192
174 255 249 214 238 191 145 144 164 160 129 170 165 140 135 161 162 161 180 185 157 133 22 55 94 155 208 36 4 21 67 70 69 76 130 159 164 183 193 196 195 194 200 191 165 173 183 185 185 188 193 195 196 197 200 204 204 204 206 209 213 213 208 204 202 203 201 198 196 198 201 200 199 203 206 209 210 203 197 196 195 195 195 200 203 197
165 221 247 211 187 153 134 168 148 106 37 263 168 123 140 194 155 142 181 149 125 122 25 25 62 37 89 46 7 33 72 75 81 90 128 163 161 169 175 185 191 193 202 197 175 137 169 185 186 188 193 197 199 199 201 204 204 205 206 209 214 215 212 209 204 202 201 199 199 199 200 200 199 203 209 213 216 211 206 205 202 199 197 202 204 202
176 227 279 271 178 144 150 168 134 116 167 296 55 158 212 217 143 119 134 120 114 102 59 83 116 103 108 50 358 33 79 76 84 88 82 101 145 158 154 157 175 177 174 186 182 163 142 179 186 189 194 198 199 200 203 206 205 205 206 209 213 216 215 213 207 204 202 200 201 202 203 202 201 205 211 215 217 214 212 212 212 209 204 202 202 203
160 244 295 246 179 261 142 134 107 96 117 102 93 229 249 317 102 113 103 103 93 82 72 93 119 141 158 132 317 116 107 92 74 67 53 50 105 138 139 137 150 164 173 185 185 182 178 174 180 186 192 197 199 199 203 208 207 206 207 209 212 215 216 215 211 207 203 202 203 204 207 207 205 206 212 216 218 217 215 214 214 214 211 206 203 204
119 118 296 269 156 308 62 108 105 15 67 123 168 195 82 76 50 355 125 142 106 101 143 22 51 148 223 168 183 169 131 116 95 88 77 58 84 115 118 118 127 143 164 183 190 191 198 201 178 182 189 194 197 199 201 205 207 207 207 209 213 216 217 215 213 210 207 205 205 205 208 211 210 210 214 218 220 218 217 216 215 215 214 212 210 210
85 112 289 301 147 131 23 75 167 312 11 79 74 22 64 141 156 188 190 151 125 129 154 116 2 288 250 192 188 182 146 128 116 111 105 84 78 97 107 112 119 127 137 158 181 194 205 212 185 171 178 184 190 195 198 202 205 207 208 210 212 214 214 213 212 213 211 208 208 208 208 210 213 214 217 220 222 221 219 217 217 218 217 215 215 215
18 93 216 297 352 99 49 313 166 157 61 57 52 18 324 320 156 186 287 112 118 136 153 136 111 259 256 35 107 143 125 111 107 97 90 85 76 77 91 101 106 114 121 137 160 178 196 204 198 179 168 170 180 189 196 201 204 206 207 209 211 212 213 213 213 214 213 211 211 212 211 212 214 215 216 220 223 226 225 222 220 221 222 220 219 219
15 85 144 294 355 98 197 229 166 146 150 136 135 195 203 204 153 88 315 323 105 122 147 146 148 164 23 56 66 67 117 104 104 101 86 77 73 71 77 87 93 100 108 120 133 148 172 183 186 192 186 175 177 181 188 198 204 206 208 209 212 214 214 214 213 214 215 214 213 214 215 215 217 218 218 219 222 226 229 229 227 225 225 226 225 226
272 96 63 284 250 193 228 244 115 108 115 121 125 172 170 157 133 134 188 224 80 84 92 97 111 104 55 28 319 222 125 115 112 110 99 83 79 80 80 84 89 92 97 108 116 128 155 162 156 176 190 189 188 186 182 187 197 204 205 206 210 215 216 214 213 214 215 215 216 218 217 216 218 222 224 223 223 225 227 230 231 230 229 229 228 229
332 74 36 310 300 334 347 8 21 31 58 75 45 3 340 163 127 132 163 148 104 105 111 91 87 111 105 149 157 111 117 118 114 110 103 94 88 86 84 84 87 89 93 104 112 116 129 137 140 158 179 187 191 194 190 185 189 195 198 201 205 212 216 216 215 215 215 215 215 218 219 219 218 221 227 230 229 228 228 230 230 231 234 234 231 230
345 63 66 32 22 9 18 30 1 347 31 69 329 340 340 110 113 104 85 80 80 89 119 115 116 121 146 145 126 114 123 120 114 110 107 103 99 93 89 86 88 91 91 93 99 103 106 111 121 140 156 168 177 186 192 192 195 197 198 202 206 207 211 217 219 218 218 219 217 216 219 220 219 219 225 235 239 237 234 232 230 231 235 238 237 234
15 61 87 102 108 117 120 86 305 289 313 331 336 27 29 73 103 115 105 73 85 103 80 101 124 113 134 150 142 156 137 122 119 118 111 108 108 102 95 89 88 90 89 86 85 86 90 94 102 119 132 140 148 157 172 186 197 201 201 204 206 206 211 219 223 220 219 221 220 219 221 222 222 219 217 225 237 242 240 235 232 234 238 240 240 239
86 43 70 129 141 159 171 211 240 208 103 29 32 37 40 62 86 106 108 98 134 122 71 78 138 132 146 163 149 144 135 127 130 126 118 115 113 105 98 93 89 88 88 87 85 83 86 89 89 100 112 119 123 128 136 151 172 190 197 198 200 207 215 222 224 221 218 219 220 221 222 222 223 222 219 218 222 229 236 237 234 236 240 242 243 243
104 22 13 111 160 189 171 138 5 61 81 77 64 40 30 67 85 76 96 139 142 113 89 170 149 138 152 165 148 142 135 127 133 131 129 129 119 109 101 95 91 88 86 85 84 83 85 88 86 85 91 97 99 101 111 129 141 158 181 193 196 202 209 215 221 223 221 222 222 222 222 222 222 222 224 223 219 218 223 231 235 237 240 241 242 243
112 23 345 23 24 357 75 52 42 58 65 60 61 52 51 89 100 87 112 150 143 121 142 168 155 141 150 154 147 151 147 142 145 141 138 135 125 114 106 98 90 86 85 84 82 81 82 83 82 81 82 84 84 80 82 97 120 138 158 172 182 193 203 210 217 223 224 223 224 224 223 222 221 220 222 225 224 221 220 225 231 236 238 239 239 240
100 359 322 18 49 12 20 34 41 59 58 39 39 43 57 80 90 93 107 110 96 113 132 138 133 132 142 146 150 157 153 146 143 139 135 130 121 113 108 102 94 88 87 87 84 82 83 83 81 80 82 83 83 80 77 81 94 125 151 156 153 164 186 199 204 212 216 215 217 222 224 225 221 218 219 223 225 228 229 228 228 232 236 237 238 240
60 318 302 24 67 359 4 20 26 56 66 46 29 25 51 76 80 88 102 97 94 109 120 121 122 119 117 127 134 140 141 137 134 132 129 123 117 112 107 105 102 97 94 92 87 84 85 85 82 82 85 86 86 86 84 83 83 93 134 168 161 149 158 165 168 181 199 205 206 213 219 222 222 221 221 222 225 228 230 229 228 231 233 234 235 239
37 4 316 40 64 334 341 3 10 55 64 42 20 8 27 83 100 109 122 124 122 124 124 123 127 138 133 125 119 121 125 124 123 123 122 120 118 114 110 107 106 105 103 99 93 88 85 85 83 82 86 90 92 94 93 89 83 81 90 116 151 155 159 161 158 162 175 187 192 195 198 205 213 218 221 223 226 227 227 227 228 229 232 234 234 236
27 54 1 48 70 308 324 353 13 56 51 20 346 328 335 82 99 110 127 133 135 137 140 144 148 152 141 128 117 117 120 120 122 124 123 122 119 115 113 109 106 106 108 104 97 92 88 85 83 82 85 90 93 95 97 95 89 81 79 84 101 131 156 176 175 160 159 168 175 176 176 183 191 199 206 212 219 224 226 227 228 229 231 234 236 238
37 81 33 69 98 292 314 351 34 52 51 268 270 273 209 144 121 123 133 135 133 126 116 121 129 135 134 127 123 124 123 126 131 132 131 128 123 118 116 112 105 104 108 107 100 95 92 88 87 86 86 89 91 94 97 97 93 87 78 77 85 98 111 120 129 138 146 155 165 173 177 184 189 190 194 199 205 213 221 226 229 231 233 234 236 239
31 52 1 31 102 240 321 27 56 60 223 245 290 327 130 134 119 108 106 113 116 110 109 115 124 130 129 126 124 122 122 127 133 134 134 131 127 123 120 116 110 106 107 107 100 98 99 94 90 90 90 89 88 89 92 92 89 87 83 78 78 82 86 89 91 96 104 117 138 164 185 199 208 210 207 204 203 208 216 224 229 232 235 237 238 239
78 52 7 35 89 65 12 55 102 211 253 294 333 4 64 102 109 100 73 39 99 117 121 125 129 128 125 124 125 123 118 118 122 129 133 130 125 124 122 120 114 108 108 108 100 97 102 100 91 90 94 94 87 80 80 78 70 64 66 68 68 71 77 79 78 79 81 85 96 112 146 199 225 230 232 234 227 219 221 226 231 235 237 238 240 241
105 97 48 34 56 100 97 68 80 237 318 339 333 327 15 115 131 123 104 49 91 120 123 123 128 130 127 126 128 127 117 106 101 116 132 133 128 124 121 119 115 109 109 111 104 99 103 104 98 96 98 97 90 81 75 69 55 44 45 51 53 55 65 71 69 68 68 70 76 83 91 105 141 209 229 238 239 235 233 233 235 239 241 241 242 244
82 101 105 99 14 73 93 63 28 52 60 273 275 285 292 134 133 119 111 110 186 143 137 135 136 137 135 134 137 136 122 103 88 115 127 131 133 127 121 118 114 111 112 115 113 109 109 109 108 107 107 105 98 90 83 68 45 33 34 48 54 51 52 59 59 56 56 59 62 65 70 76 84 104 142 206 228 232 238 239 239 243 246 246 245 245
43 63 89 93 40 41 88 96 98 148 196 234 257 291 84 129 125 102 99 139 239 164 147 143 145 149 150 151 150 146 130 108 135 139 128 127 130 127 123 120 116 114 114 114 116 119 118 117 117 120 122 116 97 82 71 33 15 25 35 49 59 52 45 49 49 44 44 51 55 55 56 59 61 73 87 87 159 254 277 268 256 254 257 259 255 251
22 25 42 63 41 20 94 96 114 199 219 234 248 301 80 137 121 86 101 198 241 184 162 155 156 159 158 153 150 147 141 146 157 148 136 133 132 129 127 126 125 124 120 114 113 126 139 147 161 156 112 74 47 10 348 336 345 358 12 24 27 22 29 36 32 25 22 27 45 52 49 46 42 41 39 34 43 45 16 338 310 288 278 274 271 264
10 19 46 87 60 18 91 98 334 247 248 260 284 356 30 134 103 86 177 228 247 180 172 163 158 159 157 153 152 151 152 152 149 144 142 143 140 135 134 133 133 134 130 122 121 163 192 199 228 358 15 10 343 332 338 348 347 331 324 343 346 343 6 15 357 355 353 345 356 24 39 36 24 16 13 12 19 30 23 11 2 340 309 288 283 280
6 356 5 75 92 20 103 103 28 296 286 291 359 34 40 59 141 164 216 221 137 154 165 163 158 158 156 155 157 152 141 142 144 144 148 152 149 142 142 145 146 145 143 146 188 243 251 277 338 356 2 3 354 354 2 8 356 317 305 310 310 312 317 293 288 308 326 320 318 319 321 359 10 0 357 356 356 3 10 15 15 358 338 317 299 294
140 97 345 308 216 54 65 68 93 207 281 318 359 22 26 59 170 146 104 105 128 139 145 148 154 159 156 149 148 146 140 141 146 149 150 152 151 148 151 159 167 171 171 181 223 258 278 301 317 321 323 323 327 340 353 359 357 337 321 318 315 311 294 277 280 291 292 289 299 304 301 301 319 341 346 345 344 348 353 1 3 353 344 334 313 300
102 129 170 254 251 98 95 85 194 209 263 11 74 97 79 110 133 122 105 105 116 121 126 133 141 152 154 146 140 142 144 144 148 150 149 151 154 156 161 176 194 201 209 226 248 268 283 296 301 302 303 305 308 316 326 335 340 334 329 330 324 312 292 276 277 279 272 270 280 293 299 302 305 315 334 337 331 332 335 337 342 343 338 331 324 317
239 172 150 147 158 163 175 194 197 183 124 101 109 114 109 114 125 125 116 111 112 119 127 130 131 139 145 144 141 143 146 148 149 152 153 156 161 167 179 195 206 215 231 247 259 273 283 290 294 297 302 305 302 300 301 305 309 313 317 323 318 310 302 295 291 282 268 265 269 276 286 298 302 305 317 323 315 317 321 319 322 330 332 332 332 330
276 151 136 118 356 340 76 116 144 136 117 113 117 118 119 122 127 129 126 121 120 127 133 134 134 137 141 145 146 145 148 153 155 158 164 167 171 181 190 197 204 215 232 246 261 278 287 297 311 317 314 301 292 290 290 292 296 300 305 310 309 303 300 299 298 296 289 281 276 274 276 286 296 301 309 311 300 297 304 308 311 315 320 325 329 329
0 42 93 81 61 72 65 62 144 142 129 125 125 126 129 132 133 133 135 134 134 138 140 141 143 144 147 153 154 150 152 159 160 160 166 171 174 181 188 193 198 206 221 241 261 276 289 315 331 329 309 290 286 286 285 286 291 295 298 301 299 294 291 290 291 295 299 301 301 290 271 271 286 298 307 307 295 286 286 288 293 301 309 315 318 320
358 27 45 78 87 144 235 346 137 149 139 132 139 145 143 145 149 146 142 144 147 148 150 152 155 155 155 159 161 158 159 165 167 166 167 170 174 178 182 186 193 200 211 229 247 262 288 311 315 304 288 283 286 288 288 290 293 294 295 295 292 288 287 288 289 292 295 300 308 303 266 249 266 286 297 299 294 291 288 283 283 295 306 311 312 313
22 12 3 123 75 49 346 32 108 136 115 91 143 164 161 159 166 164 156 161 166 164 161 164 169 170 164 160 162 163 163 167 173 173 170 170 173 176 179 185 193 201 206 215 235 254 273 288 288 277 272 278 285 291 295 297 296 295 294 290 284 283 286 287 289 292 293 293 298 299 266 237 242 257 271 279 281 284 287 286 289 297 304 308 309 308
48 335 265 89 66 249 258 345 78 126 97 52 85 166 175 175 179 179 171 170 175 176 176 173 171 173 172 167 165 168 167 168 175 178 177 177 179 182 188 194 193 195 205 220 234 244 253 261 262 262 268 280 289 296 301 302 299 294 291 286 281 282 285 285 284 287 290 291 291 289 273 252 249 255 262 269 273 278 287 293 298 304 308 308 304 299
121 211 159 125 142 188 200 249 53 109 118 90 73 99 170 176 177 179 179 179 182 184 187 184 178 176 180 178 176 178 179 175 177 183 185 185 190 196 200 199 197 202 216 226 226 225 231 239 246 255 269 283 293 299 302 302 299 297 295 291 285 281 279 281 282 282 286 292 295 294 289 279 270 267 269 272 275 282 295 304 306 307 309 306 302 296